| time (UTC) | temp F | wind direction | speed knots | gust knots | rain 1hr in | rain 24hr in | rain mn in | humidity % | barometer mb |
| 20260509013040 | 49 | 304 | 2.6 | 7.0 | 0.00 | 0.00 | 0.00 | 81 | 1019.5 |
| 20260509012535 | 49 | 295 | 2.6 | 5.2 | 0.00 | 0.00 | 0.00 | 81 | 1019.6 |
| 20260509012032 | 49 | 302 | 2.6 | 6.1 | 0.00 | 0.00 | 0.00 | 81 | 1019.6 |
| 20260509011530 | 49 | 289 | 1.7 | 5.2 | 0.00 | 0.00 | 0.00 | 81 | 1019.6 |
| 20260509011049 | 50 | 304 | 2.6 | 3.5 | 0.00 | 0.00 | 0.00 | 80 | 1019.1 |
| 20260509011028 | 50 | 304 | 2.6 | 3.5 | 0.00 | 0.00 | 0.00 | 80 | 1019.6 |
| 20260509010527 | 50 | 295 | 2.6 | 6.1 | 0.00 | 0.00 | 0.00 | 80 | 1019.5 |
| 20260509010025 | 50 | 285 | 2.6 | 7.0 | 0.00 | 0.00 | 0.00 | 80 | 1019.6 |
| 20260509005523 | 50 | 288 | 1.7 | 3.5 | 0.00 | 0.00 | 0.00 | 80 | 1019.5 |
| 20260509005021 | 50 | 298 | 1.7 | 6.1 | 0.00 | 0.00 | 0.00 | 80 | 1019.5 |
| 20260509004520 | 50 | 291 | 2.6 | 6.1 | 0.00 | 0.00 | 0.00 | 80 | 1019.5 |
| 20260509004018 | 50 | 309 | 2.6 | 6.1 | 0.00 | 0.00 | 0.00 | 80 | 1019.5 |
| 20260509003516 | 50 | 299 | 2.6 | 5.2 | 0.00 | 0.00 | 0.00 | 79 | 1019.6 |
| 20260509003034 | 50 | 288 | 2.6 | 6.1 | 0.00 | 0.00 | 0.00 | 79 | 1019.6 |
| 20260509002532 | 50 | 294 | 1.7 | 5.2 | 0.00 | 0.00 | 0.00 | 79 | 1019.6 |
| 20260509002031 | 50 | 289 | 2.6 | 3.5 | 0.00 | 0.00 | 0.00 | 79 | 1019.7 |
| 20260509001529 | 50 | 289 | 2.6 | 3.5 | 0.00 | 0.00 | 0.00 | 79 | 1019.6 |
| 20260509001027 | 50 | 293 | 1.7 | 6.1 | 0.00 | 0.00 | 0.00 | 78 | 1019.7 |
| 20260509000526 | 50 | 279 | 2.6 | 6.1 | 0.00 | 0.00 | 0.00 | 78 | 1019.7 |
| 20260509000024 | 50 | 297 | 1.7 | 3.5 | 0.00 | 0.00 | 0.00 | 79 | 1019.7 |
| 20260508235522 | 50 | 283 | 1.7 | 6.1 | 0.00 | 0.00 | 0.00 | 79 | 1019.7 |
| 20260508235020 | 50 | 284 | 3.5 | 6.1 | 0.00 | 0.00 | 0.00 | 78 | 1019.7 |
| 20260508234518 | 50 | 307 | 2.6 | 5.2 | 0.00 | 0.00 | 0.00 | 79 | 1019.7 |
| 20260508234049 | 50 | 277 | 1.7 | 5.2 | 0.00 | 0.00 | 0.00 | 79 | 1019.7 |
| 20260508234017 | 50 | 277 | 1.7 | 5.2 | 0.00 | 0.00 | 0.00 | 79 | 1019.7 |
| 20260508233534 | 50 | 306 | 1.7 | 5.2 | 0.00 | 0.00 | 0.00 | 79 | 1019.7 |
| 20260508233033 | 50 | 280 | 1.7 | 3.5 | 0.00 | 0.00 | 0.00 | 79 | 1019.7 |
| 20260508232530 | 50 | 293 | 1.7 | 3.5 | 0.00 | 0.00 | 0.00 | 79 | 1019.7 |
| 20260508232029 | 50 | 286 | 1.7 | 3.5 | 0.00 | 0.00 | 0.00 | 78 | 1019.8 |
| 20260508231527 | 50 | 289 | 1.7 | 3.5 | 0.00 | 0.00 | 0.00 | 78 | 1019.7 |
| 20260508231025 | 51 | 296 | 1.7 | 5.2 | 0.00 | 0.00 | 0.00 | 78 | 1019.7 |
| 20260508230524 | 51 | 291 | 1.7 | 3.5 | 0.00 | 0.00 | 0.00 | 78 | 1019.7 |
| 20260508230022 | 51 | 289 | 2.6 | 5.2 | 0.00 | 0.00 | 0.00 | 78 | 1019.8 |
| 20260508225521 | 51 | 292 | 1.7 | 2.6 | 0.00 | 0.00 | 0.00 | 78 | 1019.8 |
| 20260508225018 | 51 | 291 | 1.7 | 3.5 | 0.00 | 0.00 | 0.00 | 78 | 1019.7 |
| 20260508224516 | 51 | 288 | 1.7 | 3.5 | 0.00 | 0.00 | 0.00 | 78 | 1019.7 |
| 20260508224035 | 51 | 286 | 0.9 | 3.5 | 0.00 | 0.00 | 0.00 | 78 | 1019.7 |
| 20260508223533 | 51 | 304 | 1.7 | 3.5 | 0.00 | 0.00 | 0.00 | 78 | 1019.6 |
| 20260508223031 | 51 | 305 | 1.7 | 3.5 | 0.00 | 0.00 | 0.00 | 77 | 1019.7 |
| 20260508222529 | 51 | 293 | 1.7 | 6.1 | 0.00 | 0.00 | 0.00 | 77 | 1019.6 |
| 20260508222027 | 51 | 285 | 1.7 | 6.1 | 0.00 | 0.00 | 0.00 | 77 | 1019.7 |
| 20260508221526 | 51 | 285 | 1.7 | 3.5 | 0.00 | 0.00 | 0.00 | 77 | 1019.6 |
| 20260508221024 | 51 | 277 | 1.7 | 3.5 | 0.00 | 0.00 | 0.00 | 77 | 1019.6 |
| 20260508220522 | 51 | 291 | 1.7 | 2.6 | 0.00 | 0.00 | 0.00 | 77 | 1019.6 |
| 20260508220021 | 51 | 295 | 0.9 | 3.5 | 0.00 | 0.00 | 0.00 | 77 | 1019.6 |
| 20260508215518 | 51 | 297 | 1.7 | 5.2 | 0.00 | 0.00 | 0.00 | 77 | 1019.6 |
| 20260508215048 | 51 | 295 | 0.9 | 2.6 | 0.00 | 0.00 | 0.00 | 77 | 1019.6 |
| 20260508215017 | 51 | 295 | 0.9 | 2.6 | 0.00 | 0.00 | 0.00 | 77 | 1019.6 |
| 20260508214535 | 51 | 286 | 0.9 | 3.5 | 0.00 | 0.00 | 0.00 | 76 | 1019.6 |
| 20260508214033 | 51 | 284 | 1.7 | 3.5 | 0.00 | 0.00 | 0.00 | 76 | 1019.6 |
| 20260508213531 | 51 | 284 | 1.7 | 2.6 | 0.00 | 0.00 | 0.00 | 77 | 1019.6 |
| 20260508213029 | 51 | 300 | 2.6 | 6.1 | 0.00 | 0.00 | 0.00 | 76 | 1019.6 |
| 20260508212528 | 51 | 289 | 0.9 | 3.5 | 0.00 | 0.00 | 0.00 | 76 | 1019.8 |
| 20260508212026 | 51 | 285 | 0.9 | 2.6 | 0.00 | 0.00 | 0.00 | 77 | 1019.7 |
| 20260508211524 | 51 | 299 | 1.7 | 3.5 | 0.00 | 0.00 | 0.00 | 77 | 1019.7 |
| 20260508211022 | 51 | 321 | 1.7 | 5.2 | 0.00 | 0.00 | 0.00 | 77 | 1019.7 |
| 20260508210521 | 51 | 316 | 2.6 | 6.1 | 0.00 | 0.00 | 0.00 | 77 | 1019.8 |
| 20260508210018 | 51 | 314 | 2.6 | 5.2 | 0.00 | 0.00 | 0.00 | 77 | 1019.7 |
| 20260508205517 | 51 | 310 | 2.6 | 5.2 | 0.00 | 0.00 | 0.00 | 76 | 1019.8 |
| 20260508205035 | 51 | 311 | 2.6 | 6.1 | 0.00 | 0.00 | 0.00 | 76 | 1019.8 |
| 20260508204533 | 51 | 307 | 1.7 | 5.2 | 0.00 | 0.00 | 0.00 | 76 | 1019.8 |
| 20260508204031 | 51 | 301 | 2.6 | 5.2 | 0.00 | 0.00 | 0.00 | 77 | 1019.7 |
| 20260508203530 | 51 | 317 | 1.7 | 6.1 | 0.00 | 0.00 | 0.00 | 77 | 1019.7 |
| 20260508203027 | 52 | 326 | 2.6 | 6.1 | 0.00 | 0.00 | 0.00 | 77 | 1019.7 |
| 20260508202525 | 52 | 285 | 1.7 | 3.5 | 0.00 | 0.00 | 0.00 | 77 | 1019.7 |
| 20260508202023 | 52 | 310 | 1.7 | 3.5 | 0.00 | 0.00 | 0.00 | 77 | 1019.7 |
| 20260508201522 | 52 | 314 | 1.7 | 3.5 | 0.00 | 0.00 | 0.00 | 77 | 1019.7 |
| 20260508201020 | 52 | 299 | 2.6 | 6.1 | 0.00 | 0.00 | 0.00 | 78 | 1019.6 |
| 20260508200518 | 52 | 310 | 1.7 | 5.2 | 0.00 | 0.00 | 0.00 | 77 | 1019.6 |
| 20260508200049 | 52 | 331 | 0.9 | 3.5 | 0.00 | 0.00 | 0.00 | 78 | 1019.7 |
| 20260508200016 | 52 | 331 | 0.9 | 3.5 | 0.00 | 0.00 | 0.00 | 78 | 1019.7 |
| 20260508195534 | 52 | 326 | 1.7 | 5.2 | 0.00 | 0.00 | 0.00 | 77 | 1019.7 |
| 20260508195033 | 52 | 314 | 1.7 | 7.0 | 0.00 | 0.00 | 0.00 | 76 | 1019.6 |
| 20260508194531 | 52 | 315 | 2.6 | 6.1 | 0.00 | 0.00 | 0.00 | 76 | 1019.5 |
| 20260508194049 | 52 | 333 | 2.6 | 6.1 | 0.00 | 0.00 | 0.00 | 75 | 1019.6 |
| 20260508194029 | 52 | 333 | 2.6 | 6.1 | 0.00 | 0.00 | 0.00 | 75 | 1019.6 |
| 20260508193528 | 52 | 310 | 2.6 | 7.0 | 0.00 | 0.00 | 0.00 | 75 | 1019.5 |
| 20260508193025 | 52 | 318 | 2.6 | 6.1 | 0.00 | 0.00 | 0.00 | 75 | 1019.6 |
| 20260508192523 | 53 | 300 | 1.7 | 6.1 | 0.00 | 0.00 | 0.00 | 75 | 1019.5 |
| 20260508192021 | 53 | 304 | 1.7 | 5.2 | 0.00 | 0.00 | 0.00 | 75 | 1019.6 |
| 20260508191520 | 53 | 296 | 1.7 | 6.1 | 0.00 | 0.00 | 0.00 | 74 | 1019.5 |
| 20260508191018 | 53 | 318 | 1.7 | 5.2 | 0.00 | 0.00 | 0.00 | 74 | 1019.5 |
| 20260508190535 | 53 | 321 | 2.6 | 6.1 | 0.00 | 0.00 | 0.00 | 74 | 1019.5 |
| 20260508190034 | 53 | 298 | 1.7 | 5.2 | 0.00 | 0.00 | 0.00 | 74 | 1019.5 |
| 20260508185532 | 53 | 300 | 0.9 | 2.6 | 0.00 | 0.00 | 0.00 | 74 | 1019.4 |
| 20260508185030 | 53 | 289 | 0.9 | 2.6 | 0.00 | 0.00 | 0.00 | 74 | 1019.3 |
| 20260508184527 | 53 | 320 | 1.7 | 5.2 | 0.00 | 0.00 | 0.00 | 74 | 1019.3 |
| 20260508184026 | 53 | 290 | 2.6 | 5.2 | 0.00 | 0.00 | 0.00 | 74 | 1019.3 |
| 20260508183524 | 53 | 315 | 1.7 | 6.1 | 0.00 | 0.00 | 0.00 | 74 | 1019.2 |
| 20260508183022 | 53 | 325 | 2.6 | 6.1 | 0.00 | 0.00 | 0.00 | 74 | 1019.2 |
| 20260508182519 | 53 | 332 | 0.9 | 5.2 | 0.00 | 0.00 | 0.00 | 74 | 1019.1 |
| 20260508182048 | 53 | 304 | 1.7 | 6.1 | 0.00 | 0.00 | 0.00 | 73 | 1019.1 |
| 20260508182017 | 53 | 304 | 1.7 | 6.1 | 0.00 | 0.00 | 0.00 | 73 | 1019.1 |
| 20260508181516 | 53 | 331 | 2.6 | 6.1 | 0.00 | 0.00 | 0.00 | 73 | 1019.0 |
| 20260508181034 | 53 | 294 | 2.6 | 6.1 | 0.00 | 0.01 | 0.00 | 73 | 1018.9 |
| 20260508180533 | 53 | 317 | 1.7 | 3.5 | 0.00 | 0.01 | 0.00 | 73 | 1018.9 |
| 20260508180029 | 53 | 293 | 1.7 | 5.2 | 0.00 | 0.01 | 0.00 | 73 | 1018.9 |
| 20260508175527 | 53 | 307 | 1.7 | 5.2 | 0.00 | 0.01 | 0.00 | 73 | 1018.8 |
| 20260508175025 | 53 | 298 | 2.6 | 6.1 | 0.00 | 0.01 | 0.00 | 73 | 1018.7 |
| 20260508174523 | 53 | 274 | 1.7 | 3.5 | 0.00 | 0.01 | 0.00 | 73 | 1018.6 |
| 20260508174022 | 53 | 290 | 1.7 | 5.2 | 0.00 | 0.01 | 0.00 | 73 | 1018.6 |
| 20260508173519 | 53 | 287 | 1.7 | 5.2 | 0.00 | 0.01 | 0.00 | 73 | 1018.6 |
| 20260508173049 | 54 | 279 | 3.5 | 6.1 | 0.00 | 0.01 | 0.00 | 73 | 1018.7 |
| 20260508173018 | 54 | 279 | 3.5 | 6.1 | 0.00 | 0.01 | 0.00 | 73 | 1018.7 |
| 20260508172535 | 54 | 276 | 2.6 | 6.1 | 0.00 | 0.01 | 0.00 | 72 | 1018.6 |
| 20260508172035 | 54 | 297 | 3.5 | 8.7 | 0.00 | 0.01 | 0.00 | 73 | 1018.6 |
| 20260508171533 | 54 | 294 | 2.6 | 5.2 | 0.00 | 0.01 | 0.00 | 72 | 1018.6 |
| 20260508171030 | 54 | 310 | 3.5 | 8.7 | 0.00 | 0.01 | 0.00 | 72 | 1018.7 |
| 20260508170529 | 54 | 292 | 3.5 | 7.0 | 0.00 | 0.01 | 0.00 | 72 | 1018.6 |
| 20260508170027 | 54 | 316 | 3.5 | 7.0 | 0.00 | 0.01 | 0.00 | 72 | 1018.5 |
| 20260508165524 | 54 | 305 | 2.6 | 7.8 | 0.00 | 0.01 | 0.00 | 72 | 1018.5 |
| 20260508165022 | 54 | 311 | 4.3 | 7.8 | 0.00 | 0.01 | 0.00 | 72 | 1018.4 |
| 20260508164520 | 54 | 295 | 3.5 | 7.8 | 0.00 | 0.01 | 0.00 | 72 | 1018.5 |
| 20260508164051 | 54 | 306 | 2.6 | 7.0 | 0.00 | 0.01 | 0.00 | 72 | 1018.4 |
| 20260508164020 | 54 | 306 | 2.6 | 7.0 | 0.00 | 0.01 | 0.00 | 72 | 1018.4 |
| 20260508163517 | 54 | 308 | 2.6 | 5.2 | 0.00 | 0.01 | 0.00 | 72 | 1018.5 |
| 20260508163035 | 54 | 294 | 3.5 | 7.8 | 0.00 | 0.01 | 0.00 | 71 | 1018.5 |
| 20260508162533 | 54 | 309 | 3.5 | 7.8 | 0.00 | 0.01 | 0.00 | 71 | 1018.4 |
| 20260508162032 | 54 | 324 | 3.5 | 7.0 | 0.00 | 0.01 | 0.00 | 71 | 1018.4 |
| 20260508161530 | 54 | 321 | 2.6 | 5.2 | 0.00 | 0.01 | 0.00 | 72 | 1018.3 |
| 20260508161028 | 54 | 316 | 2.6 | 6.1 | 0.00 | 0.01 | 0.00 | 71 | 1018.3 |
| 20260508160526 | 54 | 311 | 3.5 | 7.8 | 0.00 | 0.01 | 0.00 | 71 | 1018.4 |
| 20260508160024 | 54 | 301 | 3.5 | 7.0 | 0.00 | 0.01 | 0.00 | 71 | 1018.4 |
| 20260508155523 | 54 | 310 | 3.5 | 7.8 | 0.00 | 0.01 | 0.00 | 71 | 1018.4 |
| 20260508155020 | 54 | 300 | 3.5 | 7.8 | 0.00 | 0.01 | 0.00 | 71 | 1018.4 |
| 20260508154519 | 54 | 296 | 3.5 | 7.8 | 0.00 | 0.01 | 0.00 | 71 | 1018.4 |
| 20260508154049 | 54 | 297 | 3.5 | 8.7 | 0.00 | 0.01 | 0.00 | 71 | 1018.4 |
| 20260508154017 | 54 | 297 | 3.5 | 8.7 | 0.00 | 0.01 | 0.00 | 71 | 1018.4 |
| 20260508153535 | 54 | 303 | 2.6 | 8.7 | 0.00 | 0.01 | 0.00 | 71 | 1018.4 |
| 20260508153034 | 54 | 315 | 3.5 | 8.7 | 0.00 | 0.01 | 0.00 | 71 | 1018.4 |
| 20260508152531 | 54 | 292 | 4.3 | 7.8 | 0.00 | 0.01 | 0.00 | 71 | 1018.3 |
| 20260508152029 | 55 | 310 | 3.5 | 7.8 | 0.00 | 0.01 | 0.00 | 71 | 1018.4 |
| 20260508151526 | 55 | 301 | 5.2 | 12.2 | 0.00 | 0.01 | 0.00 | 71 | 1018.3 |
| 20260508151025 | 55 | 317 | 4.3 | 11.3 | 0.00 | 0.01 | 0.00 | 71 | 1018.3 |
| 20260508150523 | 55 | 291 | 2.6 | 7.8 | 0.00 | 0.01 | 0.00 | 70 | 1018.2 |
| 20260508150021 | 55 | 293 | 2.6 | 8.7 | 0.00 | 0.01 | 0.00 | 71 | 1018.2 |
| 20260508145519 | 55 | 312 | 3.5 | 8.7 | 0.00 | 0.01 | 0.00 | 71 | 1018.2 |
| 20260508145017 | 55 | 337 | 4.3 | 8.7 | 0.00 | 0.01 | 0.00 | 71 | 1018.1 |
| 20260508144536 | 55 | 347 | 2.6 | 7.8 | 0.00 | 0.01 | 0.00 | 71 | 1018.1 |
| 20260508144034 | 55 | 300 | 2.6 | 7.8 | 0.00 | 0.01 | 0.00 | 72 | 1018.2 |
| 20260508143532 | 55 | 337 | 3.5 | 8.7 | 0.00 | 0.01 | 0.00 | 71 | 1018.2 |
| 20260508143030 | 55 | 334 | 2.6 | 6.1 | 0.00 | 0.01 | 0.00 | 72 | 1018.2 |
| 20260508142528 | 55 | 327 | 2.6 | 7.0 | 0.00 | 0.01 | 0.00 | 72 | 1018.3 |
| 20260508142026 | 55 | 322 | 2.6 | 8.7 | 0.00 | 0.01 | 0.00 | 72 | 1018.2 |
| 20260508141525 | 55 | 312 | 3.5 | 7.8 | 0.00 | 0.01 | 0.00 | 72 | 1018.2 |
| 20260508141023 | 55 | 287 | 3.5 | 7.8 | 0.00 | 0.01 | 0.00 | 72 | 1018.3 |
| 20260508140520 | 55 | 305 | 4.3 | 7.8 | 0.00 | 0.01 | 0.00 | 72 | 1018.3 |
| 20260508140020 | 55 | 309 | 3.5 | 8.7 | 0.00 | 0.01 | 0.00 | 72 | 1018.2 |
| 20260508135536 | 55 | 290 | 3.5 | 7.0 | 0.00 | 0.01 | 0.00 | 72 | 1018.2 |
| 20260508135034 | 55 | 312 | 2.6 | 5.2 | 0.00 | 0.01 | 0.00 | 71 | 1018.2 |
| 20260508134532 | 55 | 337 | 1.7 | 7.8 | 0.00 | 0.01 | 0.00 | 72 | 1018.3 |
| 20260508134030 | 55 | 305 | 2.6 | 6.1 | 0.00 | 0.01 | 0.00 | 72 | 1018.3 |
| 20260508133528 | 55 | 312 | 1.7 | 6.1 | 0.00 | 0.01 | 0.00 | 72 | 1018.3 |
| 20260508133026 | 55 | 331 | 2.6 | 6.1 | 0.00 | 0.01 | 0.00 | 71 | 1018.3 |
| 20260508132525 | 55 | 339 | 2.6 | 7.8 | 0.00 | 0.01 | 0.00 | 71 | 1018.2 |
| 20260508132023 | 56 | 329 | 1.7 | 3.5 | 0.00 | 0.01 | 0.00 | 71 | 1018.3 |
| 20260508131521 | 56 | 309 | 1.7 | 6.1 | 0.00 | 0.01 | 0.00 | 71 | 1018.4 |
| 20260508131019 | 56 | 275 | 2.6 | 6.1 | 0.00 | 0.01 | 0.00 | 71 | 1018.3 |
| 20260508130517 | 56 | 276 | 4.3 | 8.7 | 0.00 | 0.01 | 0.00 | 71 | 1018.4 |
| 20260508130046 | 56 | 300 | 4.3 | 9.6 | 0.00 | 0.01 | 0.00 | 71 | 1018.4 |
| 20260508130015 | 56 | 300 | 4.3 | 9.6 | 0.00 | 0.01 | 0.00 | 71 | 1018.4 |
| 20260508125534 | 56 | 287 | 4.3 | 8.7 | 0.00 | 0.01 | 0.00 | 70 | 1018.4 |
| 20260508125032 | 56 | 290 | 3.5 | 7.8 | 0.00 | 0.01 | 0.00 | 70 | 1018.4 |
| 20260508124531 | 56 | 297 | 4.3 | 9.6 | 0.00 | 0.01 | 0.00 | 71 | 1018.3 |
| 20260508124029 | 56 | 352 | 2.6 | 6.1 | 0.00 | 0.01 | 0.00 | 71 | 1018.4 |
| 20260508123527 | 56 | 282 | 3.5 | 7.8 | 0.00 | 0.01 | 0.00 | 71 | 1018.3 |
| 20260508123025 | 56 | 331 | 3.5 | 9.6 | 0.00 | 0.01 | 0.00 | 72 | 1018.3 |
| 20260508122523 | 56 | 343 | 2.6 | 7.8 | 0.00 | 0.01 | 0.00 | 73 | 1018.3 |
| 20260508122021 | 55 | 300 | 4.3 | 9.6 | 0.00 | 0.01 | 0.00 | 72 | 1018.3 |
| 20260508121520 | 55 | 296 | 5.2 | 11.3 | 0.00 | 0.01 | 0.00 | 72 | 1018.3 |
| 20260508121018 | 55 | 318 | 4.3 | 8.7 | 0.00 | 0.01 | 0.00 | 72 | 1018.4 |
| 20260508120516 | 56 | 308 | 4.3 | 8.7 | 0.00 | 0.01 | 0.00 | 72 | 1018.2 |
| 20260508120034 | 56 | 297 | 3.5 | 9.6 | 0.00 | 0.01 | 0.00 | 72 | 1018.2 |
| 20260508115532 | 56 | 291 | 5.2 | 11.3 | 0.00 | 0.01 | 0.00 | 71 | 1018.1 |
| 20260508115031 | 56 | 297 | 4.3 | 8.7 | 0.00 | 0.01 | 0.00 | 71 | 1018.0 |
| 20260508114529 | 56 | 291 | 5.2 | 13.0 | 0.00 | 0.01 | 0.00 | 71 | 1017.9 |
| 20260508114027 | 55 | 292 | 3.5 | 7.8 | 0.00 | 0.01 | 0.00 | 71 | 1018.0 |
| 20260508113525 | 55 | 292 | 3.5 | 7.8 | 0.00 | 0.01 | 0.00 | 71 | 1018.0 |
| 20260508113023 | 55 | 290 | 4.3 | 9.6 | 0.00 | 0.01 | 0.00 | 72 | 1018.0 |
| 20260508112522 | 55 | 291 | 3.5 | 7.8 | 0.00 | 0.01 | 0.00 | 72 | 1018.0 |
| 20260508112019 | 55 | 294 | 5.2 | 8.7 | 0.00 | 0.01 | 0.00 | 72 | 1018.0 |
| 20260508111518 | 56 | 303 | 4.3 | 9.6 | 0.00 | 0.01 | 0.00 | 73 | 1018.0 |
| 20260508111016 | 56 | 290 | 4.3 | 12.2 | 0.00 | 0.01 | 0.00 | 72 | 1017.9 |
| 20260508110535 | 56 | 282 | 4.3 | 8.7 | 0.00 | 0.01 | 0.00 | 72 | 1017.9 |
| 20260508110033 | 56 | 278 | 3.5 | 7.0 | 0.00 | 0.01 | 0.00 | 73 | 1017.9 |
| 20260508105530 | 56 | 296 | 1.7 | 6.1 | 0.00 | 0.01 | 0.00 | 72 | 1017.8 |
| 20260508105029 | 56 | 295 | 2.6 | 5.2 | 0.00 | 0.01 | 0.00 | 73 | 1017.8 |
| 20260508104528 | 55 | 287 | 2.6 | 6.1 | 0.00 | 0.01 | 0.00 | 75 | 1017.6 |
| 20260508104025 | 55 | 295 | 2.6 | 6.1 | 0.00 | 0.01 | 0.00 | 74 | 1017.7 |
| 20260508103524 | 55 | 284 | 3.5 | 7.8 | 0.00 | 0.01 | 0.00 | 75 | 1017.8 |
| 20260508103022 | 55 | 291 | 2.6 | 6.1 | 0.00 | 0.01 | 0.00 | 75 | 1017.7 |
| 20260508102520 | 55 | 293 | 1.7 | 6.1 | 0.00 | 0.01 | 0.00 | 74 | 1017.8 |
| 20260508102050 | 55 | 281 | 2.6 | 7.8 | 0.00 | 0.01 | 0.00 | 74 | 1017.8 |
| 20260508102018 | 55 | 281 | 2.6 | 7.8 | 0.00 | 0.01 | 0.00 | 74 | 1017.8 |
| 20260508101516 | 55 | 277 | 2.6 | 6.1 | 0.00 | 0.01 | 0.00 | 74 | 1017.9 |
| 20260508101035 | 55 | 286 | 3.5 | 7.0 | 0.00 | 0.01 | 0.00 | 74 | 1017.9 |
| 20260508100533 | 55 | 285 | 4.3 | 7.8 | 0.00 | 0.01 | 0.00 | 74 | 1017.9 |
| 20260508100032 | 55 | 291 | 2.6 | 7.0 | 0.00 | 0.01 | 0.00 | 73 | 1017.9 |
| 20260508095529 | 55 | 294 | 2.6 | 6.1 | 0.00 | 0.01 | 0.00 | 74 | 1017.8 |
| 20260508095028 | 55 | 284 | 2.6 | 7.0 | 0.00 | 0.01 | 0.00 | 74 | 1017.9 |
| 20260508094526 | 55 | 272 | 2.6 | 6.1 | 0.00 | 0.01 | 0.00 | 75 | 1017.9 |
| 20260508094023 | 55 | 280 | 2.6 | 5.2 | 0.00 | 0.01 | 0.00 | 74 | 1017.7 |
| 20260508093521 | 55 | 320 | 2.6 | 7.0 | 0.00 | 0.01 | 0.00 | 74 | 1017.7 |
| 20260508093020 | 55 | 315 | 1.7 | 7.8 | 0.00 | 0.01 | 0.00 | 75 | 1017.7 |
| 20260508092518 | 55 | 296 | 3.5 | 6.1 | 0.00 | 0.01 | 0.00 | 75 | 1017.7 |
| 20260508092016 | 54 | 303 | 3.5 | 7.0 | 0.00 | 0.01 | 0.00 | 76 | 1017.7 |
| 20260508091534 | 54 | 291 | 2.6 | 6.1 | 0.00 | 0.01 | 0.00 | 76 | 1017.7 |
| 20260508091033 | 54 | 277 | 3.5 | 7.0 | 0.00 | 0.01 | 0.00 | 76 | 1017.7 |
| 20260508090531 | 54 | 301 | 2.6 | 5.2 | 0.00 | 0.01 | 0.00 | 76 | 1017.7 |
| 20260508090029 | 54 | 306 | 2.6 | 5.2 | 0.00 | 0.01 | 0.00 | 76 | 1017.6 |
| 20260508085527 | 54 | 350 | 3.5 | 7.0 | 0.00 | 0.01 | 0.00 | 76 | 1017.5 |
| 20260508085025 | 54 | 312 | 2.6 | 6.1 | 0.00 | 0.01 | 0.00 | 76 | 1017.5 |
| 20260508084523 | 54 | 301 | 2.6 | 6.1 | 0.00 | 0.01 | 0.00 | 76 | 1017.5 |
| 20260508084022 | 54 | 330 | 1.7 | 3.5 | 0.00 | 0.01 | 0.00 | 76 | 1017.4 |
| 20260508083519 | 54 | 321 | 1.7 | 3.5 | 0.00 | 0.01 | 0.00 | 76 | 1017.3 |
| 20260508083018 | 54 | 348 | 0.9 | 6.1 | 0.00 | 0.01 | 0.00 | 77 | 1017.3 |
| 20260508082517 | 54 | 330 | 1.7 | 5.2 | 0.00 | 0.01 | 0.00 | 77 | 1017.3 |
| 20260508082034 | 54 | 344 | 2.6 | 5.2 | 0.00 | 0.01 | 0.00 | 78 | 1017.3 |
| 20260508081532 | 54 | 290 | 1.7 | 5.2 | 0.00 | 0.01 | 0.00 | 78 | 1017.3 |
| 20260508081030 | 53 | 296 | 2.6 | 6.1 | 0.00 | 0.01 | 0.00 | 79 | 1017.3 |
| 20260508080528 | 53 | 298 | 1.7 | 3.5 | 0.00 | 0.01 | 0.00 | 79 | 1017.3 |
| 20260508080026 | 53 | 285 | 2.6 | 5.2 | 0.00 | 0.01 | 0.00 | 79 | 1017.4 |
| 20260508075525 | 53 | 298 | 2.6 | 6.1 | 0.00 | 0.01 | 0.00 | 79 | 1017.3 |
| 20260508075023 | 53 | 285 | 2.6 | 5.2 | 0.00 | 0.01 | 0.00 | 79 | 1017.3 |
| 20260508074521 | 53 | 283 | 1.7 | 5.2 | 0.00 | 0.01 | 0.00 | 79 | 1017.4 |
| 20260508074020 | 53 | 289 | 1.7 | 6.1 | 0.00 | 0.01 | 0.00 | 79 | 1017.3 |
| 20260508073517 | 53 | 298 | 1.7 | 5.2 | 0.00 | 0.01 | 0.00 | 80 | 1017.3 |
| 20260508073050 | 53 | 303 | 1.7 | 3.5 | 0.00 | 0.01 | 0.00 | 80 | 1017.2 |
| 20260508073016 | 53 | 303 | 1.7 | 3.5 | 0.00 | 0.01 | 0.00 | 80 | 1017.2 |
| 20260508072534 | 53 | 295 | 1.7 | 5.2 | 0.00 | 0.01 | 0.00 | 80 | 1017.2 |
| 20260508072033 | 52 | 307 | 2.6 | 6.1 | 0.00 | 0.01 | 0.00 | 80 | 1017.2 |
| 20260508071530 | 52 | 309 | 1.7 | 5.2 | 0.00 | 0.01 | 0.00 | 80 | 1017.2 |
| 20260508071029 | 52 | 289 | 1.7 | 5.2 | 0.00 | 0.01 | 0.00 | 81 | 1017.1 |
| 20260508070527 | 52 | 322 | 1.7 | 5.2 | 0.00 | 0.01 | 0.00 | 81 | 1017.1 |
| 20260508070025 | 52 | 333 | 1.7 | 3.5 | 0.00 | 0.01 | 0.00 | 81 | 1017.0 |
| 20260508065523 | 52 | 316 | 1.7 | 3.5 | 0.00 | 0.01 | 0.00 | 81 | 1017.1 |
| 20260508065021 | 52 | 295 | 1.7 | 5.2 | 0.00 | 0.01 | 0.00 | 81 | 1017.1 |
| 20260508064519 | 52 | 347 | 0.9 | 2.6 | 0.00 | 0.01 | 0.00 | 81 | 1017.0 |
| 20260508064017 | 52 | 298 | 0.9 | 3.5 | 0.00 | 0.01 | 0.00 | 81 | 1017.0 |
| 20260508063516 | 52 | 290 | 1.7 | 3.5 | 0.00 | 0.01 | 0.00 | 81 | 1016.9 |
| 20260508063034 | 52 | 317 | 2.6 | 5.2 | 0.00 | 0.01 | 0.00 | 82 | 1017.0 |
| 20260508062532 | 52 | 305 | 1.7 | 3.5 | 0.00 | 0.01 | 0.00 | 82 | 1016.8 |
| 20260508062030 | 52 | 305 | 1.7 | 3.5 | 0.00 | 0.01 | 0.00 | 82 | 1016.9 |
| 20260508061528 | 52 | 303 | 0.9 | 2.6 | 0.00 | 0.01 | 0.00 | 82 | 1016.8 |
| 20260508061027 | 52 | 302 | 0.9 | 3.5 | 0.00 | 0.01 | 0.00 | 82 | 1016.8 |
| 20260508060524 | 52 | 292 | 1.7 | 3.5 | 0.00 | 0.01 | 0.00 | 82 | 1016.8 |
| 20260508060023 | 52 | 347 | 1.7 | 3.5 | 0.00 | 0.01 | 0.00 | 83 | 1016.7 |
| 20260508055521 | 51 | 297 | 1.7 | 3.5 | 0.00 | 0.01 | 0.00 | 83 | 1016.7 |
| 20260508055019 | 51 | 298 | 1.7 | 3.5 | 0.00 | 0.01 | 0.00 | 82 | 1016.6 |
| 20260508054518 | 51 | 345 | 1.7 | 2.6 | 0.00 | 0.01 | 0.00 | 82 | 1016.5 |
| 20260508054036 | 51 | 349 | 1.7 | 5.2 | 0.00 | 0.01 | 0.00 | 83 | 1016.5 |
| 20260508053533 | 51 | 332 | 0.9 | 2.6 | 0.00 | 0.01 | 0.00 | 83 | 1016.5 |
| 20260508053032 | 51 | 345 | 0.0 | 1.7 | 0.00 | 0.01 | 0.00 | 83 | 1016.4 |
| 20260508052530 | 51 | 0.0 | 0.0 | 0.00 | 0.01 | 0.00 | 83 | 1016.3 | |
| 20260508052027 | 51 | 0.0 | 0.0 | 0.00 | 0.01 | 0.00 | 83 | 1016.4 | |
| 20260508051526 | 51 | 0.0 | 0.0 | 0.00 | 0.01 | 0.00 | 84 | 1016.3 | |
| 20260508051024 | 51 | 24 | 0.0 | 1.7 | 0.00 | 0.01 | 0.00 | 85 | 1016.3 |
| 20260508050522 | 51 | 28 | 0.9 | 2.6 | 0.00 | 0.01 | 0.00 | 85 | 1016.2 |
| 20260508050020 | 51 | 351 | 0.9 | 2.6 | 0.00 | 0.01 | 0.00 | 85 | 1016.3 |
| 20260508045518 | 51 | 349 | 0.9 | 3.5 | 0.00 | 0.01 | 0.00 | 85 | 1016.2 |
| 20260508045016 | 51 | 356 | 0.9 | 3.5 | 0.00 | 0.01 | 0.00 | 85 | 1016.2 |
| 20260508044535 | 51 | 14 | 0.9 | 2.6 | 0.00 | 0.01 | 0.00 | 85 | 1016.2 |
| 20260508044033 | 51 | 6 | 0.9 | 3.5 | 0.00 | 0.01 | 0.00 | 86 | 1016.2 |
| 20260508043531 | 51 | 5 | 0.9 | 3.5 | 0.00 | 0.01 | 0.00 | 86 | 1016.3 |
| 20260508043029 | 51 | 24 | 0.9 | 2.6 | 0.00 | 0.01 | 0.00 | 86 | 1016.3 |
| 20260508042527 | 51 | 12 | 0.0 | 1.7 | 0.00 | 0.01 | 0.00 | 86 | 1016.3 |
| 20260508042025 | 51 | 341 | 0.9 | 3.5 | 0.00 | 0.01 | 0.00 | 86 | 1016.2 |
| 20260508041524 | 51 | 347 | 1.7 | 3.5 | 0.00 | 0.01 | 0.00 | 86 | 1016.0 |
| 20260508041021 | 51 | 339 | 1.7 | 3.5 | 0.00 | 0.01 | 0.00 | 86 | 1016.1 |
| 20260508040520 | 51 | 347 | 2.6 | 5.2 | 0.00 | 0.01 | 0.00 | 86 | 1016.0 |
| 20260508040018 | 51 | 344 | 1.7 | 3.5 | 0.00 | 0.01 | 0.00 | 85 | 1016.0 |
| 20260508035517 | 51 | 352 | 2.6 | 6.1 | 0.00 | 0.01 | 0.00 | 85 | 1015.9 |
| 20260508035034 | 51 | 343 | 0.9 | 3.5 | 0.00 | 0.01 | 0.00 | 84 | 1016.0 |
| 20260508034533 | 51 | 332 | 0.9 | 3.5 | 0.00 | 0.01 | 0.00 | 84 | 1015.9 |
| 20260508034031 | 52 | 336 | 1.7 | 3.5 | 0.00 | 0.01 | 0.00 | 84 | 1015.9 |
| 20260508033529 | 52 | 343 | 1.7 | 5.2 | 0.00 | 0.01 | 0.00 | 83 | 1015.9 |
| 20260508033027 | 52 | 357 | 1.7 | 3.5 | 0.00 | 0.01 | 0.00 | 83 | 1015.7 |
| 20260508032525 | 52 | 9 | 1.7 | 5.2 | 0.00 | 0.01 | 0.00 | 82 | 1015.7 |
| 20260508032024 | 52 | 20 | 0.9 | 3.5 | 0.00 | 0.01 | 0.00 | 82 | 1015.6 |
| 20260508031522 | 52 | 343 | 2.6 | 7.0 | 0.00 | 0.01 | 0.00 | 82 | 1015.6 |
| 20260508031020 | 52 | 316 | 1.7 | 3.5 | 0.00 | 0.01 | 0.00 | 81 | 1015.7 |
| 20260508030518 | 52 | 346 | 2.6 | 6.1 | 0.00 | 0.01 | 0.00 | 81 | 1015.7 |
| 20260508030016 | 52 | 332 | 2.6 | 6.1 | 0.00 | 0.01 | 0.00 | 81 | 1015.6 |
| 20260508025535 | 52 | 328 | 2.6 | 5.2 | 0.00 | 0.01 | 0.00 | 81 | 1015.6 |
| 20260508025033 | 53 | 348 | 2.6 | 5.2 | 0.00 | 0.01 | 0.00 | 81 | 1015.5 |
| 20260508024531 | 53 | 337 | 1.7 | 5.2 | 0.00 | 0.01 | 0.00 | 80 | 1015.7 |
| 20260508024029 | 53 | 324 | 1.7 | 3.5 | 0.00 | 0.01 | 0.00 | 80 | 1015.6 |
| 20260508023527 | 53 | 312 | 1.7 | 3.5 | 0.00 | 0.01 | 0.00 | 80 | 1015.7 |
| 20260508023026 | 53 | 306 | 1.7 | 5.2 | 0.00 | 0.01 | 0.00 | 80 | 1015.7 |
| 20260508022524 | 53 | 293 | 1.7 | 6.1 | 0.00 | 0.01 | 0.00 | 80 | 1015.7 |
| 20260508022049 | 53 | 300 | 1.7 | 5.2 | 0.00 | 0.01 | 0.00 | 80 | 1015.6 |
| 20260508022023 | 53 | 300 | 1.7 | 5.2 | 0.00 | 0.01 | 0.00 | 80 | 1015.6 |
| 20260508021521 | 53 | 299 | 0.9 | 2.6 | 0.00 | 0.01 | 0.00 | 80 | 1015.5 |
| 20260508021018 | 53 | 310 | 0.9 | 2.6 | 0.00 | 0.01 | 0.00 | 81 | 1015.5 |
| 20260508020516 | 53 | 301 | 0.9 | 3.5 | 0.00 | 0.01 | 0.00 | 81 | 1015.3 |
| 20260508020035 | 53 | 333 | 1.7 | 6.1 | 0.00 | 0.01 | 0.00 | 81 | 1015.2 |
| 20260508015533 | 53 | 309 | 1.7 | 5.2 | 0.00 | 0.01 | 0.00 | 81 | 1015.4 |
| 20260508015032 | 53 | 338 | 1.7 | 3.5 | 0.00 | 0.01 | 0.00 | 81 | 1015.2 |
| 20260508014530 | 53 | 353 | 2.6 | 5.2 | 0.00 | 0.01 | 0.00 | 81 | 1015.3 |
| 20260508014028 | 53 | 346 | 0.9 | 3.5 | 0.00 | 0.01 | 0.00 | 81 | 1015.2 |
| 20260508013526 | 53 | 337 | 0.9 | 5.2 | 0.00 | 0.01 | 0.00 | 81 | 1015.2 |